Year,Month,Day,Hour,Minute,Value (Times are PST for windgust in km/hr)
2015,12,12,05,42,1.60
2015,12,12,05,43,4.80
2015,12,12,05,44,1.60
2015,12,12,05,46,4.80
2015,12,12,05,47,4.80
2015,12,12,05,48,1.60
2015,12,12,05,49,1.60
2015,12,12,05,50,6.40
2015,12,12,05,51,1.60
2015,12,12,05,53,8.10
2015,12,12,05,54,4.80
2015,12,12,05,55,3.20
2015,12,12,05,56,3.20
2015,12,12,05,58,3.20
2015,12,12,05,59,3.20
2015,12,12,06,00,3.20
2015,12,12,06,01,3.20
2015,12,12,06,02,3.20
2015,12,12,06,03,3.20
2015,12,12,06,04,3.20
2015,12,12,06,05,3.20
2015,12,12,06,06,3.20
2015,12,12,06,07,3.20
2015,12,12,06,08,3.20
2015,12,12,09,48,24.20
2015,12,12,09,49,20.90
2015,12,12,09,50,25.70
2015,12,12,09,51,25.70
2015,12,12,09,52,24.20
2015,12,12,09,53,17.70
2015,12,12,09,54,22.50
2015,12,12,09,55,22.50
2015,12,12,09,56,20.90
2015,12,12,09,57,24.20
2015,12,12,09,58,27.40
2015,12,12,09,59,24.20
2015,12,12,10,00,29.00
2015,12,12,10,01,32.20
2015,12,12,10,02,38.60
2015,12,12,10,03,41.80
2015,12,12,10,04,33.80
2015,12,12,10,05,41.80
2015,12,12,10,06,30.60
2015,12,12,10,07,38.60
2015,12,12,10,08,35.40
2015,12,12,10,09,29.00
2015,12,12,10,10,25.70
2015,12,12,10,11,24.20
2015,12,12,10,12,33.80
2015,12,12,10,13,40.20
2015,12,12,10,14,38.60
2015,12,12,10,15,40.20
2015,12,12,10,16,38.60
2015,12,12,10,17,37.00
2015,12,12,10,18,40.20
2015,12,12,10,19,51.50
2015,12,12,10,20,43.50
2015,12,12,10,21,43.50
2015,12,12,10,22,38.60
2015,12,12,10,23,38.60
2015,12,12,10,24,41.80
2015,12,12,10,25,30.60
2015,12,12,10,26,37.00
2015,12,12,10,27,40.20
2015,12,12,10,28,32.20
2015,12,12,10,29,35.40
2015,12,12,10,30,46.70
2015,12,12,10,31,41.80
2015,12,12,10,32,38.60
2015,12,12,10,33,35.40
2015,12,12,10,34,32.20
2015,12,12,10,35,40.20
2015,12,12,10,36,43.50
2015,12,12,10,37,37.00
2015,12,12,10,38,41.80
2015,12,12,10,39,33.80
2015,12,12,10,40,40.20
2015,12,12,10,41,35.40
2015,12,12,10,42,37.00
2015,12,12,10,43,35.40
2015,12,12,10,44,38.60
2015,12,12,10,45,38.60
2015,12,12,10,46,35.40
2015,12,12,10,47,45.10
2015,12,12,10,48,49.90
2015,12,12,10,49,38.60
2015,12,12,10,50,35.40
2015,12,12,10,51,48.30
2015,12,12,10,52,48.30
2015,12,12,10,53,41.80
2015,12,12,10,54,46.70
2015,12,12,10,55,40.20
2015,12,12,10,56,35.40
2015,12,12,10,57,27.40
2015,12,12,10,58,37.00
2015,12,12,10,59,41.80
2015,12,12,11,00,41.80
2015,12,12,11,01,40.20
2015,12,12,11,02,38.60
2015,12,12,11,03,37.00
2015,12,12,11,04,51.50
2015,12,12,11,05,40.20
2015,12,12,11,06,43.50
2015,12,12,11,07,40.20
2015,12,12,11,08,41.80
2015,12,12,11,09,41.80
2015,12,12,11,10,37.00
2015,12,12,11,11,38.60
2015,12,12,11,12,40.20
2015,12,12,11,13,37.00
2015,12,12,11,14,30.60
2015,12,12,11,15,37.00
2015,12,12,11,16,43.50
2015,12,12,11,17,48.30
2015,12,12,11,18,43.50
2015,12,12,11,19,57.90
2015,12,12,11,20,54.70
2015,12,12,11,21,37.00
2015,12,12,11,22,41.80
2015,12,12,11,23,46.70
2015,12,12,11,24,53.10
2015,12,12,11,25,48.30
2015,12,12,11,26,38.60
2015,12,12,11,27,29.00
2015,12,12,11,28,29.00
2015,12,12,11,29,53.10
2015,12,12,11,30,29.00
2015,12,12,11,31,38.60
2015,12,12,11,32,46.70
2015,12,12,11,33,43.50
2015,12,12,11,34,43.50
2015,12,12,11,35,53.10
2015,12,12,11,36,70.80
2015,12,12,11,37,48.30
2015,12,12,11,38,38.60
2015,12,12,11,39,43.50
2015,12,12,11,40,57.90
2015,12,12,11,41,53.10
2015,12,12,11,42,40.20
2015,12,12,11,43,46.70
2015,12,12,11,44,51.50
2015,12,12,11,45,43.50
2015,12,12,11,46,48.30
2015,12,12,11,47,53.10
2015,12,12,11,48,41.80
2015,12,12,11,49,35.40
2015,12,12,11,50,35.40
2015,12,12,11,51,43.50
2015,12,12,11,52,53.10
2015,12,12,11,53,40.20
2015,12,12,11,54,43.50
2015,12,12,11,55,43.50
2015,12,12,11,56,46.70
2015,12,12,11,57,64.40
2015,12,12,11,58,49.90
2015,12,12,11,59,45.10
2015,12,12,12,00,59.50
2015,12,12,12,01,70.80
2015,12,12,12,02,62.70
2015,12,12,12,03,54.70
2015,12,12,12,04,49.90
2015,12,12,12,05,49.90
2015,12,12,12,06,35.40
2015,12,12,12,07,53.10
2015,12,12,12,08,48.30
2015,12,12,12,09,48.30
2015,12,12,12,10,45.10
2015,12,12,12,11,38.60
2015,12,12,12,12,43.50
2015,12,12,12,13,43.50
2015,12,12,12,14,41.80
2015,12,12,12,15,45.10
2015,12,12,12,16,48.30
2015,12,12,12,17,53.10
2015,12,12,12,18,62.70
2015,12,12,12,19,57.90
2015,12,12,12,20,64.40
2015,12,12,12,21,53.10
2015,12,12,12,22,57.90
2015,12,12,12,23,67.60
2015,12,12,12,24,46.70
2015,12,12,12,25,46.70
2015,12,12,12,26,54.70
2015,12,12,12,27,77.30
2015,12,12,12,28,62.70
2015,12,12,12,29,54.70
2015,12,12,12,30,54.70
2015,12,12,12,31,46.70
2015,12,12,12,32,53.10
2015,12,12,12,33,53.10
2015,12,12,12,34,45.10
2015,12,12,12,35,46.70
2015,12,12,12,36,51.50
2015,12,12,12,37,51.50
2015,12,12,12,38,43.50
2015,12,12,12,39,57.90
2015,12,12,12,40,59.50
2015,12,12,12,41,61.20
2015,12,12,12,42,59.50
2015,12,12,12,43,51.50
2015,12,12,12,44,48.30
2015,12,12,12,45,43.50
2015,12,12,12,46,49.90
2015,12,12,12,47,53.10
2015,12,12,12,48,40.20
2015,12,12,12,49,41.80
2015,12,12,12,50,45.10
2015,12,12,12,51,64.40
2015,12,12,12,52,48.30
2015,12,12,12,53,54.70
2015,12,12,12,54,61.20
2015,12,12,12,55,53.10
2015,12,12,12,56,53.10
2015,12,12,12,57,46.70
2015,12,12,12,58,41.80
2015,12,12,12,59,53.10
2015,12,12,13,00,49.90
2015,12,12,13,01,62.70
2015,12,12,13,02,54.70
2015,12,12,13,03,43.50
2015,12,12,13,04,40.20
2015,12,12,13,05,48.30
2015,12,12,13,06,57.90
2015,12,12,13,07,43.50
2015,12,12,13,08,53.10
2015,12,12,13,09,46.70
2015,12,12,13,10,67.60
2015,12,12,13,11,53.10
2015,12,12,13,12,67.60
2015,12,12,13,13,61.20
2015,12,12,13,14,48.30
2015,12,12,13,15,51.50
2015,12,12,13,16,64.40
2015,12,12,13,17,45.10
2015,12,12,13,18,43.50
2015,12,12,13,19,64.40
2015,12,12,13,20,61.20
2015,12,12,13,21,54.70
2015,12,12,13,22,64.40
2015,12,12,13,23,48.30
2015,12,12,13,24,59.50
2015,12,12,13,25,48.30
2015,12,12,13,26,56.30
2015,12,12,13,27,48.30
2015,12,12,13,28,53.10
2015,12,12,13,29,51.50
2015,12,12,13,30,59.50
2015,12,12,13,31,69.20
2015,12,12,13,32,74.00
2015,12,12,13,33,51.50
2015,12,12,13,34,54.70
2015,12,12,13,35,56.30
2015,12,12,13,36,49.90
2015,12,12,13,37,38.60
2015,12,12,13,38,37.00
2015,12,12,13,39,41.80
2015,12,12,13,40,67.60
2015,12,12,13,41,53.10
2015,12,12,13,42,45.10
2015,12,12,13,43,62.70
2015,12,12,13,44,43.50
2015,12,12,13,45,45.10
2015,12,12,13,46,40.20
2015,12,12,13,47,54.70
2015,12,12,13,48,64.40
2015,12,12,13,49,49.90
2015,12,12,13,50,67.60
2015,12,12,13,51,67.60
2015,12,12,13,52,59.50
2015,12,12,13,53,59.50
2015,12,12,13,54,48.30
2015,12,12,13,55,62.70
2015,12,12,13,56,38.60
2015,12,12,13,57,59.50
2015,12,12,13,58,57.90
2015,12,12,13,59,54.70
2015,12,12,14,00,53.10
2015,12,12,14,01,56.30
2015,12,12,14,02,53.10
2015,12,12,14,03,61.20
2015,12,12,14,04,53.10
2015,12,12,14,05,53.10
2015,12,12,14,06,40.20
2015,12,12,14,07,48.30
2015,12,12,14,08,48.30
2015,12,12,14,09,51.50
2015,12,12,14,10,53.10
2015,12,12,14,11,48.30
2015,12,12,14,12,53.10
2015,12,12,14,13,43.50
2015,12,12,14,14,57.90
2015,12,12,14,15,54.70
2015,12,12,14,16,51.50
2015,12,12,14,17,48.30
2015,12,12,14,18,57.90
2015,12,12,14,19,48.30
2015,12,12,14,20,59.50
2015,12,12,14,21,40.20
2015,12,12,14,22,69.20
2015,12,12,14,23,53.10
2015,12,12,14,24,53.10
2015,12,12,14,25,51.50
2015,12,12,14,26,53.10
2015,12,12,14,27,49.90
2015,12,12,14,28,75.60
2015,12,12,14,29,67.60
2015,12,12,14,30,64.40
2015,12,12,14,31,61.20
2015,12,12,14,32,59.50
2015,12,12,14,33,46.70
2015,12,12,14,34,53.10
2015,12,12,14,35,53.10
2015,12,12,14,36,53.10
2015,12,12,14,37,41.80
2015,12,12,14,38,51.50
2015,12,12,14,39,35.40
2015,12,12,14,40,49.90
2015,12,12,14,41,53.10
2015,12,12,14,42,40.20
2015,12,12,14,43,67.60
2015,12,12,14,44,54.70
2015,12,12,14,45,48.30
2015,12,12,14,46,53.10
2015,12,12,14,47,56.30
2015,12,12,14,48,49.90
2015,12,12,14,49,57.90
2015,12,12,14,50,45.10
2015,12,12,14,51,43.50
2015,12,12,14,52,51.50
2015,12,12,14,53,45.10
2015,12,12,14,54,38.60
2015,12,12,14,55,49.90
2015,12,12,14,56,54.70
2015,12,12,14,57,62.70
2015,12,12,14,58,64.40
2015,12,12,14,59,46.70
2015,12,12,15,00,41.80
2015,12,12,15,01,41.80
2015,12,12,15,02,53.10
2015,12,12,15,03,41.80
2015,12,12,15,04,37.00
2015,12,12,15,05,35.40
2015,12,12,15,06,32.20
2015,12,12,15,07,56.30
2015,12,12,15,08,38.60
2015,12,12,15,09,35.40
2015,12,12,15,10,38.60
2015,12,12,15,11,37.00
2015,12,12,15,12,43.50
2015,12,12,15,13,41.80
2015,12,12,15,14,43.50
2015,12,12,15,15,41.80
2015,12,12,15,16,45.10
2015,12,12,15,17,49.90
2015,12,12,15,18,38.60
2015,12,12,15,19,38.60
2015,12,12,15,20,56.30
2015,12,12,15,21,54.70
2015,12,12,15,22,37.00
2015,12,12,15,23,43.50
2015,12,12,15,24,40.20
2015,12,12,15,25,40.20
2015,12,12,15,26,41.80
2015,12,12,15,27,45.10
2015,12,12,15,28,32.20
2015,12,12,15,29,38.60
2015,12,12,15,30,41.80
2015,12,12,15,31,43.50
2015,12,12,15,32,43.50
2015,12,12,15,33,48.30
2015,12,12,15,34,53.10
2015,12,12,15,35,40.20
2015,12,12,15,36,43.50
2015,12,12,15,37,41.80
2015,12,12,15,38,53.10
2015,12,12,15,39,53.10
2015,12,12,15,40,41.80
2015,12,12,15,41,43.50
2015,12,12,15,42,48.30
2015,12,12,15,43,56.30
2015,12,12,15,44,43.50
2015,12,12,15,45,41.80
2015,12,12,15,46,35.40
2015,12,12,15,47,30.60
2015,12,12,15,48,38.60
2015,12,12,15,49,37.00
2015,12,12,15,50,41.80
2015,12,12,15,51,30.60
2015,12,12,15,52,32.20
2015,12,12,15,53,35.40
2015,12,12,15,54,35.40
2015,12,12,15,55,29.00
2015,12,12,15,56,29.00
2015,12,12,15,57,33.80
2015,12,12,15,58,27.40
2015,12,12,15,59,25.70
2015,12,12,16,00,35.40
2015,12,12,16,01,22.50
2015,12,12,16,02,22.50
2015,12,12,16,03,27.40
2015,12,12,16,04,30.60
2015,12,12,16,05,29.00
2015,12,12,16,06,32.20
2015,12,12,16,07,35.40
2015,12,12,16,08,35.40
2015,12,12,16,09,29.00
2015,12,12,16,10,32.20
2015,12,12,16,11,27.40
2015,12,12,16,12,27.40
2015,12,12,16,13,32.20
2015,12,12,16,14,35.40
2015,12,12,16,15,30.60
2015,12,12,16,16,33.80
2015,12,12,16,17,37.00
2015,12,12,16,18,32.20
2015,12,12,16,19,32.20
2015,12,12,16,20,29.00
2015,12,12,16,21,35.40
2015,12,12,16,22,29.00
2015,12,12,16,23,37.00
2015,12,12,16,24,24.20
2015,12,12,16,25,24.20
2015,12,12,16,26,35.40
2015,12,12,16,27,32.20
2015,12,12,16,28,37.00
2015,12,12,16,29,20.90
2015,12,12,16,30,24.20
2015,12,12,16,31,30.60
2015,12,12,16,32,30.60
2015,12,12,16,33,24.20
2015,12,12,16,34,27.40
2015,12,12,16,35,27.40
2015,12,12,16,36,29.00
2015,12,12,16,37,19.30
2015,12,12,16,38,29.00
2015,12,12,16,39,20.90
2015,12,12,16,40,27.40
2015,12,12,16,41,35.40
2015,12,12,16,42,43.50
2015,12,12,16,43,33.80
2015,12,12,16,44,43.50
2015,12,12,16,45,51.50
2015,12,12,16,46,33.80
2015,12,12,16,47,35.40
2015,12,12,16,48,30.60
2015,12,12,16,49,29.00
2015,12,12,16,50,30.60
2015,12,12,16,51,33.80
2015,12,12,16,52,30.60
2015,12,12,16,53,22.50
2015,12,12,16,54,24.20
2015,12,12,16,55,19.30
2015,12,12,16,56,32.20
2015,12,12,16,57,29.00
2015,12,12,16,58,22.50
2015,12,12,16,59,32.20
2015,12,12,17,00,27.40
2015,12,12,17,01,32.20
2015,12,12,17,02,35.40
2015,12,12,17,03,27.40
2015,12,12,17,04,35.40
2015,12,12,17,05,30.60
2015,12,12,17,06,32.20
2015,12,12,17,07,30.60
2015,12,12,17,08,30.60
2015,12,12,17,09,25.70
2015,12,12,17,10,30.60
2015,12,12,17,11,29.00
2015,12,12,17,12,29.00
2015,12,12,17,13,33.80
2015,12,12,17,14,32.20
2015,12,12,17,15,32.20
2015,12,12,17,16,27.40
2015,12,12,17,17,29.00
2015,12,12,17,18,17.70
2015,12,12,17,19,22.50
2015,12,12,17,20,20.90
2015,12,12,17,21,32.20
2015,12,12,17,22,24.20
2015,12,12,17,23,25.70
2015,12,12,17,24,22.50
2015,12,12,17,25,25.70
2015,12,12,17,26,19.30
2015,12,12,17,27,24.20
2015,12,12,17,28,27.40
2015,12,12,17,29,30.60
2015,12,12,17,30,29.00
2015,12,12,17,31,25.70
2015,12,12,17,32,29.00
2015,12,12,17,33,29.00
2015,12,12,17,34,25.70
2015,12,12,17,35,25.70
2015,12,12,17,36,33.80
2015,12,12,17,37,27.40
2015,12,12,17,38,35.40
2015,12,12,17,39,25.70
2015,12,12,17,40,40.20
2015,12,12,17,41,27.40
2015,12,12,17,42,27.40
2015,12,12,17,43,24.20
2015,12,12,17,44,27.40
2015,12,12,17,45,29.00
2015,12,12,17,46,25.70
2015,12,12,17,47,22.50
2015,12,12,17,48,32.20
2015,12,12,17,49,25.70
2015,12,12,17,50,27.40
2015,12,12,17,51,22.50
2015,12,12,17,52,20.90
2015,12,12,17,53,14.50
2015,12,12,17,54,11.30
2015,12,12,17,55,11.30
2015,12,12,17,56,33.80
2015,12,12,17,57,24.20
2015,12,12,17,58,12.90
2015,12,12,17,59,20.90
2015,12,12,18,00,19.30
2015,12,12,18,01,17.70
2015,12,12,18,02,14.50
2015,12,12,18,03,17.70
2015,12,12,18,04,14.50
2015,12,12,18,05,11.30
2015,12,12,18,06,12.90
2015,12,12,18,07,24.20
2015,12,12,18,08,24.20
2015,12,12,18,09,24.20
2015,12,12,18,10,30.60
2015,12,12,18,11,24.20
2015,12,12,18,12,29.00
2015,12,12,18,13,25.70
2015,12,12,18,14,19.30
2015,12,12,18,15,20.90
2015,12,12,18,16,20.90
2015,12,12,18,17,17.70
2015,12,12,18,18,11.30
2015,12,12,18,19,14.50
2015,12,12,18,20,16.10
2015,12,12,18,21,17.70
2015,12,12,18,22,9.60
2015,12,12,18,23,6.40
2015,12,12,18,24,8.10
2015,12,12,18,25,19.30
2015,12,12,18,26,14.50
2015,12,12,18,27,16.10
2015,12,12,18,28,16.10
2015,12,12,18,29,20.90
2015,12,12,18,30,20.90
2015,12,12,18,31,17.70
2015,12,12,18,32,22.50
2015,12,12,18,33,22.50
2015,12,12,18,34,17.70
2015,12,12,18,35,16.10
2015,12,12,18,36,16.10
2015,12,12,18,37,14.50
2015,12,12,18,38,8.10
2015,12,12,18,39,9.60
2015,12,12,18,40,17.70
2015,12,12,18,41,22.50
2015,12,12,18,42,20.90
2015,12,12,18,43,20.90
2015,12,12,18,44,27.40
2015,12,12,18,45,30.60
2015,12,12,18,46,30.60
2015,12,12,18,47,30.60
2015,12,12,18,48,29.00
2015,12,12,18,49,20.90
2015,12,12,18,50,30.60
2015,12,12,18,51,27.40
2015,12,12,18,52,19.30
2015,12,12,18,53,20.90
2015,12,12,18,54,17.70
2015,12,12,18,55,19.30
2015,12,12,18,56,22.50
2015,12,12,18,57,27.40
2015,12,12,18,58,29.00
2015,12,12,18,59,22.50
2015,12,12,19,00,19.30
2015,12,12,19,01,20.90
2015,12,12,19,02,33.80
2015,12,12,19,03,25.70
2015,12,12,19,04,30.60
2015,12,12,19,05,43.50
2015,12,12,19,06,37.00
2015,12,12,19,07,33.80
2015,12,12,19,08,33.80
2015,12,12,19,09,43.50
2015,12,12,19,10,43.50
2015,12,12,19,11,33.80
2015,12,12,19,12,33.80
2015,12,12,19,13,27.40
2015,12,12,19,14,20.90
2015,12,12,19,15,25.70
2015,12,12,19,16,41.80
2015,12,12,19,17,32.20
2015,12,12,19,18,32.20
2015,12,12,19,19,29.00
2015,12,12,19,20,30.60
2015,12,12,19,21,22.50
2015,12,12,19,22,29.00
2015,12,12,19,23,33.80
2015,12,12,19,24,32.20
2015,12,12,19,25,33.80
2015,12,12,19,26,35.40
2015,12,12,19,27,30.60
2015,12,12,19,28,33.80
2015,12,12,19,29,25.70
2015,12,12,19,30,27.40
2015,12,12,19,31,29.00
2015,12,12,19,32,20.90
2015,12,12,19,33,25.70
2015,12,12,19,34,33.80
2015,12,12,19,35,33.80
2015,12,12,19,36,20.90
2015,12,12,19,37,30.60
2015,12,12,19,38,33.80
2015,12,12,19,39,46.70
2015,12,12,19,40,46.70
2015,12,12,19,41,25.70
2015,12,12,19,42,32.20
2015,12,12,19,43,37.00
2015,12,12,19,44,35.40
2015,12,12,19,45,38.60
2015,12,12,19,46,35.40
2015,12,12,19,47,33.80
2015,12,12,19,48,37.00
2015,12,12,19,49,48.30
2015,12,12,19,50,43.50
2015,12,12,19,51,43.50
2015,12,12,19,52,33.80
2015,12,12,19,53,48.30
2015,12,12,19,54,46.70
2015,12,12,19,55,48.30
2015,12,12,19,56,72.40
2015,12,12,19,57,56.30
2015,12,12,19,58,46.70
2015,12,12,19,59,40.20
2015,12,12,20,00,46.70
2015,12,12,20,01,48.30
2015,12,12,20,02,48.30
2015,12,12,20,03,40.20
2015,12,12,20,04,32.20
2015,12,12,20,05,53.10
2015,12,12,20,06,37.00
2015,12,12,20,07,27.40
2015,12,12,20,08,37.00
2015,12,12,20,09,30.60
2015,12,12,20,10,35.40
2015,12,12,20,11,38.60
2015,12,12,20,12,27.40
2015,12,12,20,13,35.40
2015,12,12,20,14,37.00
2015,12,12,20,15,37.00
2015,12,12,20,16,32.20
2015,12,12,20,17,35.40
2015,12,12,20,18,43.50
2015,12,12,20,19,37.00
2015,12,12,20,20,43.50
2015,12,12,20,21,43.50
2015,12,12,20,22,57.90
2015,12,12,20,23,54.70
2015,12,12,20,24,37.00
2015,12,12,20,25,37.00
2015,12,12,20,26,32.20
2015,12,12,20,27,51.50
2015,12,12,20,28,41.80
2015,12,12,20,29,43.50
2015,12,12,20,30,45.10
2015,12,12,20,31,40.20
2015,12,12,20,32,35.40
2015,12,12,20,33,35.40
2015,12,12,20,34,37.00
2015,12,12,20,35,29.00
2015,12,12,20,36,41.80
2015,12,12,20,37,37.00
2015,12,12,20,38,40.20
2015,12,12,20,39,38.60
2015,12,12,20,40,41.80
2015,12,12,20,41,43.50
2015,12,12,20,42,38.60
2015,12,12,20,43,53.10
2015,12,12,20,44,48.30
2015,12,12,20,45,48.30
2015,12,12,20,46,45.10
2015,12,12,20,47,37.00
2015,12,12,20,48,45.10
2015,12,12,20,49,35.40
2015,12,12,20,50,40.20
2015,12,12,20,51,43.50
2015,12,12,20,52,53.10
2015,12,12,20,53,53.10
2015,12,12,20,54,38.60
2015,12,12,20,55,27.40
2015,12,12,20,56,33.80
2015,12,12,20,57,45.10
2015,12,12,20,58,54.70
2015,12,12,20,59,37.00
2015,12,12,21,00,32.20
2015,12,12,21,01,49.90
2015,12,12,21,02,41.80
2015,12,12,21,03,38.60
2015,12,12,21,04,54.70
2015,12,12,21,05,45.10
2015,12,12,21,06,62.70
2015,12,12,21,07,53.10
2015,12,12,21,08,49.90
2015,12,12,21,09,45.10
2015,12,12,21,10,45.10
2015,12,12,21,11,57.90
2015,12,12,21,12,54.70
2015,12,12,21,13,70.80
2015,12,12,21,14,66.00
2015,12,12,21,15,57.90
2015,12,12,21,16,51.50
2015,12,12,21,17,61.20
2015,12,12,21,18,57.90
2015,12,12,21,19,64.40
2015,12,12,21,20,57.90
2015,12,12,21,21,48.30
2015,12,12,21,22,57.90
2015,12,12,21,23,64.40
2015,12,12,21,24,61.20
2015,12,12,21,25,61.20
2015,12,12,21,26,41.80
2015,12,12,21,27,56.30
2015,12,12,21,28,56.30
2015,12,12,21,29,64.40
2015,12,12,21,30,56.30
2015,12,12,21,31,61.20
2015,12,12,21,32,51.50
2015,12,12,21,33,57.90
2015,12,12,21,34,48.30
2015,12,12,21,35,46.70
2015,12,12,21,36,61.20
2015,12,12,21,37,25.70
2015,12,12,21,38,33.80
2015,12,12,21,39,29.00
2015,12,12,21,40,49.90
2015,12,12,21,41,53.10
2015,12,12,21,42,57.90
2015,12,12,21,43,61.20
2015,12,12,21,44,49.90
2015,12,12,21,45,51.50
2015,12,12,21,46,49.90
2015,12,12,21,47,46.70
2015,12,12,21,48,41.80
2015,12,12,21,49,41.80
2015,12,12,21,50,57.90
2015,12,12,21,51,49.90
2015,12,12,21,52,40.20
2015,12,12,21,53,41.80
2015,12,12,21,54,46.70
2015,12,12,21,55,40.20
2015,12,12,21,56,41.80
2015,12,12,21,57,51.50
2015,12,12,21,58,46.70
2015,12,12,21,59,53.10
2015,12,12,22,00,49.90
2015,12,12,22,01,51.50
2015,12,12,22,02,46.70
2015,12,12,22,03,53.10
2015,12,12,22,04,53.10
2015,12,12,22,05,53.10
2015,12,12,22,06,45.10
2015,12,12,22,07,48.30
2015,12,12,22,08,43.50
2015,12,12,22,09,56.30
2015,12,12,22,10,45.10
2015,12,12,22,11,46.70
2015,12,12,22,12,43.50
2015,12,12,22,13,38.60
2015,12,12,22,14,53.10
2015,12,12,22,15,67.60
2015,12,12,22,16,45.10
2015,12,12,22,17,38.60
2015,12,12,22,18,51.50
2015,12,12,22,19,57.90
2015,12,12,22,20,69.20
2015,12,12,22,21,54.70
2015,12,12,22,22,57.90
2015,12,12,22,23,49.90
2015,12,12,22,24,45.10
2015,12,12,22,25,57.90
2015,12,12,22,26,46.70
2015,12,12,22,27,41.80
2015,12,12,22,28,40.20
2015,12,12,22,29,37.00
2015,12,12,22,30,48.30
2015,12,12,22,31,40.20
2015,12,12,22,32,27.40
2015,12,12,22,33,43.50
2015,12,12,22,34,29.00
2015,12,12,22,35,27.40
2015,12,12,22,36,43.50
2015,12,12,22,37,41.80
2015,12,12,22,38,43.50
2015,12,12,22,39,33.80
2015,12,12,22,40,40.20
2015,12,12,22,41,53.10
2015,12,12,22,42,46.70
2015,12,12,22,43,46.70
2015,12,12,22,44,40.20
2015,12,12,22,45,43.50
2015,12,12,22,46,48.30
2015,12,12,22,47,49.90
2015,12,12,22,48,40.20
2015,12,12,22,49,49.90
2015,12,12,22,50,41.80
2015,12,12,22,51,56.30
2015,12,12,22,52,46.70
2015,12,12,22,53,54.70
2015,12,12,22,54,49.90
2015,12,12,22,55,46.70
2015,12,12,22,56,51.50
2015,12,12,22,57,40.20
2015,12,12,22,58,43.50
2015,12,12,22,59,64.40
2015,12,12,23,00,61.20
2015,12,12,23,01,43.50
2015,12,12,23,02,38.60
2015,12,12,23,03,35.40
2015,12,12,23,04,59.50
2015,12,12,23,05,56.30
2015,12,12,23,06,51.50
2015,12,12,23,07,46.70
2015,12,12,23,08,51.50
2015,12,12,23,09,37.00
2015,12,12,23,10,38.60
2015,12,12,23,11,56.30
2015,12,12,23,12,54.70
2015,12,12,23,13,57.90
2015,12,12,23,14,54.70
2015,12,12,23,15,57.90
2015,12,12,23,16,53.10
2015,12,12,23,17,41.80
2015,12,12,23,18,59.50
2015,12,12,23,19,41.80
2015,12,12,23,20,49.90
2015,12,12,23,21,45.10
2015,12,12,23,22,35.40
2015,12,12,23,23,38.60
2015,12,12,23,24,53.10
2015,12,12,23,25,43.50
2015,12,12,23,26,48.30
2015,12,12,23,27,53.10
2015,12,12,23,28,56.30
2015,12,12,23,29,57.90
2015,12,12,23,30,51.50
2015,12,12,23,31,43.50
2015,12,12,23,32,48.30
2015,12,12,23,33,40.20
2015,12,12,23,34,43.50
2015,12,12,23,35,43.50
2015,12,12,23,36,43.50
2015,12,12,23,37,38.60
2015,12,12,23,38,53.10
2015,12,12,23,39,35.40
2015,12,12,23,40,53.10
2015,12,12,23,41,48.30
2015,12,12,23,42,37.00
2015,12,12,23,43,38.60
2015,12,12,23,44,53.10
2015,12,12,23,45,33.80
2015,12,12,23,46,54.70
2015,12,12,23,47,53.10
2015,12,12,23,48,40.20
2015,12,12,23,49,45.10
2015,12,12,23,50,45.10
2015,12,12,23,51,53.10
2015,12,12,23,52,56.30
2015,12,12,23,53,49.90
2015,12,12,23,54,46.70
2015,12,12,23,55,51.50
2015,12,12,23,56,40.20
2015,12,12,23,57,51.50
2015,12,12,23,58,64.40
2015,12,12,23,59,53.10
